Regional Weather Roundup
Issued by NWS

Home | Current Version | Previous Version | Text Only | Print | Product List | Glossary Off
Versions: 1 2 3 4 5 6 7 8 9 10 11 12 13 14 15 16 17 18 19 20 21 22 23 24 25 26 27 28 29 30 31 32 33 34 35 36 37 38 39 40 41 42 43 44 45 46 47 48 49 50

000
ASUS43 KBIS 021410
RWRND

NORTH DAKOTA REGIONAL WEATHER ROUNDUP
NATIONAL WEATHER SERVICE BISMARCK ND
800 AM CST MON MAR 02 2015

NOTE: "FAIR" INDICATES FEW OR NO CLOUDS BELOW 12,000 FEET WITH NO
SIGNIFICANT WEATHER AND/OR OBSTRUCTIONS TO VISIBILITY.


NDZ001>003-009>011-017-021500-
NORTHWEST NORTH DAKOTA

CITY           SKY/WX    TMP DP  RH WIND       PRES   REMARKS
WILLISTON      PTCLDY    14   6  70 S8        29.97F WCI   3
MINOT          PTCLDY    12   6  77 S14       30.08F WCI  -3
MINOT AFB      PTCLDY     8   5  86 S12       30.08F WCI  -7
$$

NDZ018>021-031>035-040>046-021500-
SOUTHWEST NORTH DAKOTA

CITY           SKY/WX    TMP DP  RH WIND       PRES   REMARKS
BISMARCK       CLEAR     12   8  84 S14       30.18F WCI  -3
DICKINSON      CLEAR     13   6  74 S17G25    29.97F WCI  -4
GARRISON         N/A      8   5  87 S10       30.09F WCI  -6
HETTINGER ARPT CLEAR     13   7  77 SE14      30.01F WCI  -2
$$

NDZ004>008-012>016-024-026-027-054-021500-
NORTHEAST NORTH DAKOTA

CITY           SKY/WX    TMP DP  RH WIND       PRES   REMARKS
GRAND FORKS    PTCLDY    -1  -5  82 SE7       30.30S WCI -14
GRND FRKS AFB  PTCLDY     4  -2  77 S7        30.29S WCI  -9
DEVILS LAKE    PTCLDY     7   3  85 SW12      30.20F WCI  -9
$$

NDZ022-023-025-028>030-036>039-047>053-021500-
SOUTHEAST NORTH DAKOTA

CITY           SKY/WX    TMP DP  RH WIND       PRES   REMARKS
FARGO          FAIR       6   1  80 S5        30.36F WCI  -3
JAMESTOWN      MOCLDY     3  -2  79 S9        30.26S WCI -12
$$




USA.gov is the U.S. government's official web portal to all federal, state and local government web resources and services.